Location: Hylvaty SDH
(49.9612°N, 16.4057°E)
Time: 18:49:38
(UTC+02:00)

Transit 4A - All Passes

Search period start: 09 August 2020 00:00
Search period end: 19 August 2020 00:00
Orbit: 865 x 980 km, 66.8° (Epoch: 08 August)

Date Brightness Start Highest point End Pass type
(mag) Time Alt. Az. Time Alt. Az. Time Alt. Az.
09 Aug - 09:08:29 10° SSE 09:12:32 19° ESE 09:16:40 10° ENE daylight
09 Aug - 10:52:03 10° SW 10:58:03 90° SE 11:04:18 10° NE daylight
09 Aug - 12:40:02 10° W 12:45:14 29° NNW 12:50:37 10° NNE daylight
09 Aug - 14:29:52 10° NW 14:33:47 17° N 14:37:46 10° NE daylight
09 Aug - 16:17:46 10° NNW 16:22:36 22° NNE 16:27:28 10° ENE daylight
09 Aug - 18:04:06 10° NNW 18:10:20 57° NE 18:16:39 10° SE daylight
09 Aug - 19:50:48 10° NW 19:56:33 37° WSW 20:02:19 10° S daylight
10 Aug - 09:16:38 10° SSE 09:21:33 27° ESE 09:26:36 10° NE daylight
10 Aug - 11:01:26 10° SW 11:07:26 69° NW 11:13:39 10° NE daylight
10 Aug - 12:50:05 10° W 12:54:58 24° NNW 12:59:58 10° NNE daylight
10 Aug - 14:39:47 10° NW 14:43:41 17° N 14:47:38 10° NE daylight
10 Aug - 16:27:09 10° NNW 16:32:21 26° NNE 16:37:37 10° E daylight
10 Aug - 18:13:24 10° NW 18:19:47 75° NE 18:26:12 10° SE daylight
10 Aug - 20:00:29 10° NW 20:05:39 27° WSW 20:10:50 10° SSW daylight
11 Aug - 09:25:11 10° S 09:30:38 39° ESE 09:36:17 10° NE daylight
11 Aug - 11:11:00 10° WSW 11:16:53 52° NW 11:22:59 10° NNE daylight
11 Aug - 13:00:11 10° WNW 13:04:44 21° NNW 13:09:23 10° NNE daylight
11 Aug - 14:49:33 10° NNW 14:53:35 17° N 14:57:39 10° NE daylight
11 Aug - 16:36:29 10° NNW 16:42:02 31° NNE 16:47:40 10° E daylight
11 Aug - 18:22:45 10° NW 18:29:09 84° SW 18:35:34 10° SSE daylight
11 Aug - 20:10:27 10° WNW 20:14:40 19° WSW 20:18:55 10° SW daylight
12 Aug - 09:34:01 10° SSW 09:39:49 54° ESE 09:45:49 10° NE daylight
12 Aug - 11:20:44 10° WSW 11:26:25 41° NW 11:32:18 10° NNE daylight
12 Aug - 13:10:18 10° WNW 13:14:34 19° NNW 13:18:54 10° NNE daylight
12 Aug - 14:59:11 10° NNW 15:03:27 19° NNE 15:07:46 10° NE daylight
12 Aug - 16:45:48 10° NNW 16:51:41 38° NE 16:57:37 10° ESE daylight
12 Aug - 18:32:10 10° NW 18:38:27 63° WSW 18:44:44 10° SSE daylight
12 Aug - 20:21:02 10° WNW 20:23:37 13° W 20:26:12 10° SW daylight
13 Aug - 08:00:33 10° SE 08:03:46 15° ESE 08:07:02 10° ENE daylight
13 Aug - 09:43:05 10° SSW 09:49:03 75° ESE 09:55:16 10° NE daylight
13 Aug - 11:30:36 10° W 11:36:01 33° NW 11:41:37 10° NNE daylight
13 Aug - 13:20:24 10° NW 13:24:26 17° N 13:28:32 10° NNE daylight
13 Aug - 15:08:41 10° NNW 15:13:17 21° NNE 15:17:56 10° ENE daylight
13 Aug - 16:55:05 10° NNW 17:01:14 48° NE 17:07:25 10° ESE daylight
13 Aug - 18:41:38 10° NW 18:47:39 46° WSW 18:53:42 10° S daylight
14 Aug - 08:08:18 10° SSE 08:12:44 22° ESE 08:17:16 10° ENE daylight
14 Aug - 09:52:21 10° SW 09:58:22 82° NW 10:04:39 10° NE daylight
14 Aug - 11:40:35 10° W 11:45:42 27° NNW 11:50:58 10° NNE daylight
14 Aug - 13:30:24 10° NW 13:34:19 17° N 13:38:18 10° NE daylight
14 Aug - 15:18:06 10° NNW 15:23:05 24° NNE 15:28:06 10° ENE daylight
14 Aug - 17:04:24 10° NNW 17:10:43 63° NE 17:17:05 10° SE daylight
14 Aug - 18:51:14 10° NW 18:56:48 33° WSW 19:02:24 10° S daylight
15 Aug - 08:16:37 10° S 08:21:46 31° ESE 08:27:05 10° NE daylight
15 Aug - 10:01:49 10° SW 10:07:47 62° NW 10:13:59 10° NNE daylight
15 Aug - 11:50:39 10° WNW 11:55:26 23° NNW 12:00:21 10° NNE daylight
15 Aug - 13:40:16 10° NW 13:44:13 17° N 13:48:13 10° NE daylight
15 Aug - 15:27:28 10° NNW 15:32:49 28° NNE 15:38:12 10° E daylight
15 Aug - 17:13:44 10° NW 17:20:08 82° NE 17:26:34 10° SE daylight
15 Aug - 19:00:59 10° WNW 19:05:52 24° WSW 19:10:46 10° SSW daylight
16 Aug - 08:25:16 10° S 08:30:53 44° ESE 08:36:42 10° NE daylight
16 Aug - 10:11:26 10° WSW 10:17:16 48° NW 10:23:18 10° NNE daylight
16 Aug - 12:00:46 10° WNW 12:05:14 20° NNW 12:09:48 10° NNE daylight
16 Aug - 13:49:58 10° NNW 13:54:06 18° N 13:58:16 10° NE daylight
16 Aug - 15:36:48 10° NNW 15:42:29 33° NE 15:48:14 10° E daylight
16 Aug - 17:23:06 10° NW 17:29:28 76° WSW 17:35:52 10° SSE daylight
16 Aug - 19:11:07 10° WNW 19:14:52 16° WSW 19:18:38 10° SW daylight
17 Aug - 06:53:12 10° ESE 06:55:01 11° E 06:56:51 10° E daylight
17 Aug - 08:34:12 10° SSW 08:40:05 61° ESE 08:46:12 10° NE daylight
17 Aug - 10:21:13 10° WSW 10:26:49 37° NW 10:32:38 10° NNE daylight
17 Aug - 12:10:53 10° NW 12:15:05 18° NNW 12:19:20 10° NNE daylight
17 Aug - 13:59:33 10° NNW 14:03:57 19° NNE 14:08:25 10° ENE daylight
17 Aug - 15:46:06 10° NNW 15:52:06 42° NE 15:58:07 10° ESE daylight
17 Aug - 17:32:31 10° NW 17:38:44 56° WSW 17:44:58 10° SSE daylight
17 Aug - 19:22:22 10° W 19:23:48 11° W 19:25:12 10° WSW daylight
18 Aug - 07:00:10 10° SE 07:03:56 17° ESE 07:07:47 10° ENE daylight
18 Aug - 08:43:20 10° SSW 08:49:22 83° SE 08:55:37 10° NE daylight
18 Aug - 10:31:07 10° W 10:36:27 30° NNW 10:41:57 10° NNE daylight
18 Aug - 12:20:57 10° NW 12:24:57 17° N 12:29:00 10° NE daylight
18 Aug - 14:09:02 10° NNW 14:13:47 22° NNE 14:18:35 10° ENE daylight
18 Aug - 15:55:24 10° NNW 16:01:37 53° NE 16:07:53 10° ESE daylight
18 Aug - 17:42:02 10° NW 17:47:56 41° WSW 17:53:49 10° S daylight
